Location: Newark
(52.5694°N, 1.3190°W)
Time: 00:20:04
(UTC+00:00)

N. Korean satellite - Pass Details

Date: 27 January 2020
Orbit: 456 x 505 km, 97.2° (Epoch: 20 February)

Event Time Altitude Azimuth Distance (km) Brightness Sun altitude
Rises 06:23:12 0° 10° (N) 2,539 10.2 -13.9°
Reaches altitude 10° 06:25:16 10° 7° (N) 1,664 9.2 -13.6°
Maximum altitude 06:28:48 59° 287° (WNW) 565 6.5 -13.0°
Drops below altitude 10° 06:32:21 10° 208° (SSW) 1,678 9.2 -12.5°
Sets 06:34:27 0° 204° (SSW) 2,563 10.1 -12.2°
